Time,TemperatureF,DewpointF,PressureIn,WindDirection,WindDirectionDegrees,WindSpeedMPH,WindSpeedGustMPH,Humidity,HourlyPrecipIn,Conditions,Clouds,dailyrainin,SolarRadiationWatts/m^2,SoftwareType,DateUTC
2013-03-10 00:02:00,62.3,51.2,30.16,East,82,6.0,6.0,67,0.00,,,0.00,0,Wunderground v.1.15,2013-03-10 05:02:00,
2013-03-10 00:07:00,62.3,51.2,30.16,East,82,6.0,6.0,67,0.00,,,0.00,0,Wunderground v.1.15,2013-03-10 05:07:00,
2013-03-10 00:12:00,62.1,51.0,30.16,East,95,5.0,5.0,67,0.00,,,0.00,0,Wunderground v.1.15,2013-03-10 05:12:00,
2013-03-10 00:17:00,62.1,51.0,30.16,ESE,103,5.0,5.0,67,0.00,,,0.00,0,Wunderground v.1.15,2013-03-10 05:17:00,
2013-03-10 00:22:00,62.0,50.9,30.16,East,90,5.0,5.0,67,0.00,,,0.00,0,Wunderground v.1.15,2013-03-10 05:22:00,
2013-03-10 00:32:00,61.8,51.1,30.16,East,88,5.0,5.0,68,0.00,,,0.00,0,Wunderground v.1.15,2013-03-10 05:32:00,
2013-03-10 00:37:00,61.8,51.1,30.16,ESE,123,5.0,5.0,68,0.00,,,0.00,0,Wunderground v.1.15,2013-03-10 05:37:00,
2013-03-10 00:47:00,61.5,51.2,30.16,ESE,103,4.0,5.0,69,0.00,,,0.00,0,Wunderground v.1.15,2013-03-10 05:47:00,
2013-03-10 00:52:00,61.3,51.0,30.15,East,100,4.0,6.0,69,0.00,,,0.00,0,Wunderground v.1.15,2013-03-10 05:52:00,
2013-03-10 00:57:00,61.3,51.0,30.15,East,92,5.0,6.0,69,0.00,,,0.00,0,Wunderground v.1.15,2013-03-10 05:57:00,
2013-03-10 01:02:00,61.3,51.4,30.15,ENE,66,5.0,5.0,70,0.00,,,0.00,0,Wunderground v.1.15,2013-03-10 06:02:00,
2013-03-10 01:12:00,61.3,51.4,30.14,East,89,6.0,6.0,70,0.00,,,0.00,0,Wunderground v.1.15,2013-03-10 06:12:00,
2013-03-10 01:22:00,61.2,51.3,30.15,SE,131,6.0,6.0,70,0.00,,,0.00,0,Wunderground v.1.15,2013-03-10 06:22:00,
2013-03-10 01:27:00,61.2,51.7,30.15,ENE,78,6.0,6.0,71,0.00,,,0.00,0,Wunderground v.1.15,2013-03-10 06:27:00,
2013-03-10 01:37:00,61.2,51.7,30.15,ENE,61,4.0,6.0,71,0.00,,,0.00,0,Wunderground v.1.15,2013-03-10 06:37:00,
2013-03-10 01:42:00,61.2,51.7,30.14,East,93,4.0,5.0,71,0.00,,,0.00,0,Wunderground v.1.15,2013-03-10 06:42:00,
2013-03-10 01:52:00,61.0,51.9,30.14,East,92,5.0,6.0,72,0.00,,,0.00,0,Wunderground v.1.15,2013-03-10 06:52:00,
2013-03-10 03:02:00,60.9,52.2,30.14,ENE,69,5.0,6.0,73,0.00,,,0.00,0,Wunderground v.1.15,2013-03-10 07:02:00,
2013-03-10 03:12:00,60.7,52.0,30.14,East,86,5.0,5.0,73,0.00,,,0.00,0,Wunderground v.1.15,2013-03-10 07:12:00,
2013-03-10 03:17:00,60.7,52.4,30.14,ENE,75,4.0,5.0,74,0.00,,,0.00,0,Wunderground v.1.15,2013-03-10 07:17:00,
2013-03-10 03:22:00,60.7,52.4,30.15,ENE,58,3.0,4.0,74,0.00,,,0.00,0,Wunderground v.1.15,2013-03-10 07:22:00,
2013-03-10 03:32:00,60.7,52.7,30.14,ENE,71,4.0,7.0,75,0.00,,,0.00,0,Wunderground v.1.15,2013-03-10 07:32:00,
2013-03-10 03:37:00,60.7,53.1,30.14,ENE,78,5.0,7.0,76,0.00,,,0.00,0,Wunderground v.1.15,2013-03-10 07:37:00,
2013-03-10 03:42:00,60.7,53.1,30.14,East,92,5.0,8.0,76,0.00,,,0.00,0,Wunderground v.1.15,2013-03-10 07:42:00,
2013-03-10 03:47:00,60.7,53.1,30.13,East,79,6.0,8.0,76,0.00,,,0.00,0,Wunderground v.1.15,2013-03-10 07:47:00,
2013-03-10 03:52:00,60.7,53.1,30.12,ENE,76,6.0,8.0,76,0.00,,,0.00,0,Wunderground v.1.15,2013-03-10 07:52:00,
2013-03-10 04:02:00,60.5,53.3,30.12,ENE,73,5.0,6.0,77,0.00,,,0.00,0,Wunderground v.1.15,2013-03-10 08:02:00,
2013-03-10 04:12:00,60.4,53.5,30.12,ENE,59,5.0,5.0,78,0.00,,,0.00,0,Wunderground v.1.15,2013-03-10 08:12:00,
2013-03-10 04:17:00,60.4,53.5,30.12,NE,55,5.0,5.0,78,0.00,,,0.00,0,Wunderground v.1.15,2013-03-10 08:17:00,
2013-03-10 04:22:00,60.2,53.3,30.12,East,88,4.0,4.0,78,0.00,,,0.00,0,Wunderground v.1.15,2013-03-10 08:22:00,
2013-03-10 04:27:00,60.1,53.6,30.12,East,89,4.0,4.0,79,0.00,,,0.00,0,Wunderground v.1.15,2013-03-10 08:27:00,
2013-03-10 04:32:00,59.9,53.4,30.13,ENE,73,4.0,4.0,79,0.00,,,0.00,0,Wunderground v.1.15,2013-03-10 08:32:00,
2013-03-10 04:37:00,59.9,53.4,30.13,ENE,58,3.0,4.0,79,0.00,,,0.00,0,Wunderground v.1.15,2013-03-10 08:37:00,
2013-03-10 04:42:00,59.8,53.6,30.13,East,82,3.0,3.0,80,0.00,,,0.00,0,Wunderground v.1.15,2013-03-10 08:42:00,
2013-03-10 04:52:00,59.6,53.4,30.13,ENE,75,3.0,3.0,80,0.00,,,0.00,0,Wunderground v.1.15,2013-03-10 08:52:00,
2013-03-10 04:57:00,59.5,53.7,30.12,East,86,3.0,3.0,81,0.00,,,0.00,0,Wunderground v.1.15,2013-03-10 08:57:00,
2013-03-10 05:07:00,59.5,53.7,30.12,NE,54,3.0,5.0,81,0.00,,,0.00,0,Wunderground v.1.15,2013-03-10 09:07:00,
2013-03-10 05:17:00,59.3,53.8,30.12,NE,49,3.0,3.0,82,0.00,,,0.00,0,Wunderground v.1.15,2013-03-10 09:17:00,
2013-03-10 05:27:00,59.3,53.8,30.12,ENE,69,3.0,3.0,82,0.00,,,0.00,0,Wunderground v.1.15,2013-03-10 09:27:00,
2013-03-10 05:32:00,59.3,53.8,30.12,NE,48,3.0,3.0,82,0.00,,,0.00,0,Wunderground v.1.15,2013-03-10 09:32:00,
2013-03-10 05:37:00,59.3,54.1,30.12,ENE,73,3.0,3.0,83,0.00,,,0.00,0,Wunderground v.1.15,2013-03-10 09:37:00,
2013-03-10 05:47:00,59.3,54.1,30.12,ENE,71,2.0,2.0,83,0.00,,,0.00,0,Wunderground v.1.15,2013-03-10 09:47:00,
2013-03-10 05:57:00,59.3,54.1,30.12,ENE,62,3.0,5.0,83,0.00,,,0.00,0,Wunderground v.1.15,2013-03-10 09:57:00,
2013-03-10 06:02:00,59.5,54.3,30.12,ENE,62,3.0,4.0,83,0.00,,,0.00,0,Wunderground v.1.15,2013-03-10 10:02:00,
2013-03-10 06:07:00,59.5,54.3,30.12,ENE,61,4.0,4.0,83,0.00,,,0.00,0,Wunderground v.1.15,2013-03-10 10:07:00,
2013-03-10 06:17:00,59.5,54.7,30.12,NE,55,3.0,4.0,84,0.00,,,0.00,0,Wunderground v.1.15,2013-03-10 10:17:00,
2013-03-10 06:22:00,59.5,54.7,30.13,ENE,64,3.0,3.0,84,0.00,,,0.00,0,Wunderground v.1.15,2013-03-10 10:22:00,
2013-03-10 06:32:00,59.5,54.7,30.13,ENE,73,3.0,4.0,84,0.00,,,0.00,0,Wunderground v.1.15,2013-03-10 10:32:00,
2013-03-10 06:37:00,59.5,54.7,30.13,ENE,64,3.0,4.0,84,0.00,,,0.00,0,Wunderground v.1.15,2013-03-10 10:37:00,
2013-03-10 06:42:00,59.5,54.7,30.12,ENE,61,3.0,3.0,84,0.00,,,0.00,0,Wunderground v.1.15,2013-03-10 10:42:00,
2013-03-10 06:47:00,59.5,54.7,30.13,ENE,71,3.0,3.0,84,0.00,,,0.00,0,Wunderground v.1.15,2013-03-10 10:47:00,
2013-03-10 06:57:00,59.3,54.5,30.13,ENE,61,2.0,3.0,84,0.00,,,0.00,0,Wunderground v.1.15,2013-03-10 10:57:00,
2013-03-10 07:02:00,59.3,54.5,30.13,ENE,62,2.0,2.0,84,0.00,,,0.00,0,Wunderground v.1.15,2013-03-10 11:02:00,
2013-03-10 07:12:00,59.2,54.7,30.13,ENE,71,2.0,2.0,85,0.00,,,0.00,0,Wunderground v.1.15,2013-03-10 11:12:00,
2013-03-10 07:17:00,59.2,54.7,30.13,ENE,78,2.0,3.0,85,0.00,,,0.00,0,Wunderground v.1.15,2013-03-10 11:17:00,
2013-03-10 07:27:00,59.2,54.7,30.14,East,83,2.0,3.0,85,0.00,,,0.00,0,Wunderground v.1.15,2013-03-10 11:27:00,
2013-03-10 07:32:00,59.2,54.7,30.14,ENE,78,2.0,2.0,85,0.00,,,0.00,0,Wunderground v.1.15,2013-03-10 11:32:00,
2013-03-10 07:37:00,59.2,54.7,30.15,ENE,76,2.0,2.0,85,0.00,,,0.00,0,Wunderground v.1.15,2013-03-10 11:37:00,
2013-03-10 07:42:00,59.2,54.7,30.14,ENE,76,2.0,2.0,85,0.00,,,0.00,0,Wunderground v.1.15,2013-03-10 11:42:00,
2013-03-10 07:47:00,59.2,54.7,30.15,ENE,72,1.0,2.0,85,0.00,,,0.00,0,Wunderground v.1.15,2013-03-10 11:47:00,
2013-03-10 07:52:00,59.2,54.7,30.15,ENE,76,1.0,1.0,85,0.00,,,0.00,0,Wunderground v.1.15,2013-03-10 11:52:00,
2013-03-10 07:57:00,59.2,54.7,30.15,ENE,76,1.0,1.0,85,0.00,,,0.00,5,Wunderground v.1.15,2013-03-10 11:57:00,
2013-03-10 08:07:00,59.0,54.5,30.15,ENE,76,1.0,2.0,85,0.00,,,0.00,12,Wunderground v.1.15,2013-03-10 12:07:00,
2013-03-10 08:12:00,59.0,54.5,30.15,ENE,76,2.0,3.0,85,0.00,,,0.00,21,Wunderground v.1.15,2013-03-10 12:12:00,
2013-03-10 08:17:00,59.2,54.7,30.15,ENE,76,2.0,3.0,85,0.00,,,0.00,25,Wunderground v.1.15,2013-03-10 12:17:00,
2013-03-10 08:27:00,59.2,54.7,30.15,ENE,76,1.0,2.0,85,0.00,,,0.00,35,Wunderground v.1.15,2013-03-10 12:27:00,
2013-03-10 08:32:00,59.3,54.8,30.16,ENE,62,1.0,2.0,85,0.00,,,0.00,40,Wunderground v.1.15,2013-03-10 12:32:00,
2013-03-10 08:42:00,59.5,55.0,30.16,ENE,71,2.0,3.0,85,0.00,,,0.00,55,Wunderground v.1.15,2013-03-10 12:42:00,
2013-03-10 08:47:00,59.6,55.1,30.16,NE,55,3.0,3.0,85,0.00,,,0.00,67,Wunderground v.1.15,2013-03-10 12:47:00,
2013-03-10 08:52:00,59.8,55.3,30.16,NE,55,4.0,4.0,85,0.00,,,0.00,74,Wunderground v.1.15,2013-03-10 12:52:00,
2013-03-10 08:57:00,59.9,55.4,30.16,ENE,78,4.0,4.0,85,0.00,,,0.00,81,Wunderground v.1.15,2013-03-10 12:57:00,
2013-03-10 09:02:00,60.1,55.2,30.16,ENE,71,4.0,4.0,84,0.00,,,0.00,106,Wunderground v.1.15,2013-03-10 13:02:00,
2013-03-10 09:12:00,61.3,55.4,30.16,ENE,58,4.0,4.0,81,0.00,,,0.00,167,Wunderground v.1.15,2013-03-10 13:12:00,
2013-03-10 09:17:00,62.1,55.5,30.16,ENE,62,3.0,4.0,79,0.00,,,0.00,178,Wunderground v.1.15,2013-03-10 13:17:00,
2013-03-10 09:27:00,62.7,55.0,30.16,East,82,4.0,5.0,76,0.00,,,0.00,181,Wunderground v.1.15,2013-03-10 13:27:00,
2013-03-10 09:32:00,63.1,55.0,30.16,ENE,76,4.0,4.0,75,0.00,,,0.00,192,Wunderground v.1.15,2013-03-10 13:32:00,
2013-03-10 09:42:00,63.4,54.6,30.16,East,86,6.0,6.0,73,0.00,,,0.00,209,Wunderground v.1.15,2013-03-10 13:42:00,
2013-03-10 09:47:00,64.0,54.8,30.16,ENE,66,5.0,6.0,72,0.00,,,0.00,248,Wunderground v.1.15,2013-03-10 13:47:00,
2013-03-10 09:57:00,66.4,54.7,30.16,East,96,6.0,7.0,66,0.00,,,0.00,581,Wunderground v.1.15,2013-03-10 13:57:00,
2013-03-10 10:07:00,66.1,54.8,30.15,East,86,7.0,12.0,67,0.00,,,0.00,547,Wunderground v.1.15,2013-03-10 14:07:00,
2013-03-10 10:12:00,66.9,55.2,30.15,ESE,116,7.0,13.0,66,0.00,,,0.00,547,Wunderground v.1.15,2013-03-10 14:12:00,
2013-03-10 10:22:00,67.8,54.7,30.16,ESE,110,8.0,8.0,63,0.00,,,0.00,253,Wunderground v.1.15,2013-03-10 14:22:00,
2013-03-10 10:27:00,67.4,54.4,30.16,ENE,59,7.0,12.0,63,0.00,,,0.00,267,Wunderground v.1.15,2013-03-10 14:27:00,
2013-03-10 10:37:00,67.4,54.4,30.16,East,79,8.0,8.0,63,0.00,,,0.00,311,Wunderground v.1.15,2013-03-10 14:37:00,
2013-03-10 10:42:00,68.8,54.8,30.16,East,95,9.0,9.0,61,0.00,,,0.00,732,Wunderground v.1.15,2013-03-10 14:42:00,
2013-03-10 10:52:00,70.1,54.6,30.15,East,89,9.0,10.0,58,0.00,,,0.00,732,Wunderground v.1.15,2013-03-10 14:52:00,
2013-03-10 10:57:00,70.3,54.3,30.15,ESE,103,9.0,13.0,57,0.00,,,0.00,709,Wunderground v.1.15,2013-03-10 14:57:00,
2013-03-10 11:07:00,70.8,54.8,30.15,ENE,62,10.0,16.0,57,0.00,,,0.00,702,Wunderground v.1.15,2013-03-10 15:07:00,
2013-03-10 11:12:00,70.8,54.8,30.15,ENE,65,10.0,13.0,57,0.00,,,0.00,709,Wunderground v.1.15,2013-03-10 15:12:00,
2013-03-10 11:17:00,70.9,54.9,30.15,East,79,11.0,13.0,57,0.00,,,0.00,716,Wunderground v.1.15,2013-03-10 15:17:00,
2013-03-10 11:27:00,71.8,54.8,30.13,ESE,109,11.0,14.0,55,0.00,,,0.00,737,Wunderground v.1.15,2013-03-10 15:27:00,
2013-03-10 11:37:00,71.8,53.7,30.13,NE,54,11.0,12.0,53,0.00,,,0.00,758,Wunderground v.1.15,2013-03-10 15:37:00,
2013-03-10 11:42:00,72.0,53.9,30.12,East,83,10.0,13.0,53,0.00,,,0.00,772,Wunderground v.1.15,2013-03-10 15:42:00,
2013-03-10 11:52:00,73.3,54.1,30.12,East,100,11.0,18.0,51,0.00,,,0.00,794,Wunderground v.1.15,2013-03-10 15:52:00,
2013-03-10 11:57:00,73.3,54.6,30.11,ESE,110,11.0,18.0,52,0.00,,,0.00,804,Wunderground v.1.15,2013-03-10 15:57:00,
2013-03-10 12:02:00,73.5,53.2,30.11,SE,130,11.0,11.0,49,0.00,,,0.00,813,Wunderground v.1.15,2013-03-10 16:02:00,
2013-03-10 12:12:00,74.0,54.2,30.12,ENE,75,12.0,12.0,50,0.00,,,0.00,827,Wunderground v.1.15,2013-03-10 16:12:00,
2013-03-10 12:17:00,74.6,54.2,30.11,East,95,13.0,18.0,49,0.00,,,0.00,830,Wunderground v.1.15,2013-03-10 16:17:00,
2013-03-10 12:27:00,74.4,54.0,30.11,ESE,120,14.0,15.0,49,0.00,,,0.00,850,Wunderground v.1.15,2013-03-10 16:27:00,
2013-03-10 12:32:00,74.4,54.5,30.11,East,100,12.0,15.0,50,0.00,,,0.00,855,Wunderground v.1.15,2013-03-10 16:32:00,
2013-03-10 12:42:00,74.2,53.2,30.11,East,83,12.0,12.0,48,0.00,,,0.00,867,Wunderground v.1.15,2013-03-10 16:42:00,
2013-03-10 12:57:00,76.0,54.9,30.12,ENE,71,9.0,11.0,48,0.00,,,0.00,876,Wunderground v.1.15,2013-03-10 16:57:00,
2013-03-10 13:07:00,75.6,53.4,30.11,SE,126,11.0,16.0,46,0.00,,,0.00,889,Wunderground v.1.15,2013-03-10 17:07:00,
2013-03-10 13:12:00,75.8,54.7,30.11,East,99,12.0,13.0,48,0.00,,,0.00,892,Wunderground v.1.15,2013-03-10 17:12:00,
2013-03-10 13:17:00,76.1,53.2,30.11,East,97,12.0,13.0,45,0.00,,,0.00,892,Wunderground v.1.15,2013-03-10 17:17:00,
2013-03-10 13:27:00,76.3,54.0,30.11,SE,133,12.0,12.0,46,0.00,,,0.00,892,Wunderground v.1.15,2013-03-10 17:27:00,
2013-03-10 13:32:00,76.8,54.5,30.11,ESE,113,12.0,12.0,46,0.00,,,0.00,894,Wunderground v.1.15,2013-03-10 17:32:00,
2013-03-10 13:42:00,77.7,52.8,30.10,ESE,116,10.0,10.0,42,0.00,,,0.00,890,Wunderground v.1.15,2013-03-10 17:42:00,
2013-03-10 13:47:00,77.9,53.6,30.10,SE,126,10.0,10.0,43,0.00,,,0.00,890,Wunderground v.1.15,2013-03-10 17:47:00,
2013-03-10 13:52:00,77.7,52.8,30.10,ESE,116,10.0,10.0,42,0.00,,,0.00,889,Wunderground v.1.15,2013-03-10 17:52:00,
2013-03-10 14:02:00,77.6,53.3,30.10,ENE,69,10.0,12.0,43,0.00,,,0.00,883,Wunderground v.1.15,2013-03-10 18:02:00,
2013-03-10 14:12:00,78.1,53.1,30.09,ENE,62,11.0,14.0,42,0.00,,,0.00,878,Wunderground v.1.15,2013-03-10 18:12:00,
2013-03-10 14:17:00,78.1,53.1,30.09,East,96,11.0,14.0,42,0.00,,,0.00,869,Wunderground v.1.15,2013-03-10 18:17:00,
2013-03-10 14:22:00,79.2,53.5,30.09,ESE,114,9.0,9.0,41,0.00,,,0.00,869,Wunderground v.1.15,2013-03-10 18:22:00,
2013-03-10 14:32:00,78.5,52.2,30.08,ENE,69,10.0,10.0,40,0.00,,,0.00,860,Wunderground v.1.15,2013-03-10 18:32:00,
2013-03-10 14:37:00,78.6,52.3,30.08,SE,131,10.0,10.0,40,0.00,,,0.00,850,Wunderground v.1.15,2013-03-10 18:37:00,
2013-03-10 14:47:00,78.6,53.6,30.08,ESE,120,11.0,11.0,42,0.00,,,0.00,841,Wunderground v.1.15,2013-03-10 18:47:00,
2013-03-10 14:52:00,78.8,53.8,30.08,NE,49,10.0,10.0,42,0.00,,,0.00,830,Wunderground v.1.15,2013-03-10 18:52:00,
2013-03-10 15:02:00,79.4,53.6,30.07,East,99,9.0,9.0,41,0.00,,,0.00,815,Wunderground v.1.15,2013-03-10 19:02:00,
2013-03-10 15:12:00,79.2,52.8,30.07,SE,124,10.0,10.0,40,0.00,,,0.00,795,Wunderground v.1.15,2013-03-10 19:12:00,
2013-03-10 15:17:00,79.4,53.0,30.07,East,97,10.0,10.0,40,0.00,,,0.00,788,Wunderground v.1.15,2013-03-10 19:17:00,
2013-03-10 15:27:00,79.0,53.3,30.07,ESE,104,10.0,14.0,41,0.00,,,0.00,769,Wunderground v.1.15,2013-03-10 19:27:00,
2013-03-10 15:32:00,79.6,53.1,30.07,SE,128,10.0,11.0,40,0.00,,,0.00,757,Wunderground v.1.15,2013-03-10 19:32:00,
2013-03-10 15:42:00,79.6,53.1,30.06,ESE,113,8.0,8.0,40,0.00,,,0.00,735,Wunderground v.1.15,2013-03-10 19:42:00,
2013-03-10 15:52:00,79.6,52.5,30.06,East,92,9.0,9.0,39,0.00,,,0.00,720,Wunderground v.1.15,2013-03-10 19:52:00,
2013-03-10 16:02:00,79.9,53.4,30.06,SE,136,9.0,9.0,40,0.00,,,0.00,711,Wunderground v.1.15,2013-03-10 20:02:00,
2013-03-10 16:12:00,77.7,56.4,30.06,SSE,154,3.0,5.0,48,0.00,,,0.00,716,Wunderground v.1.15,2013-03-10 20:12:00,
2013-03-10 16:17:00,77.2,56.0,30.06,WSW,239,3.0,7.0,48,0.00,,,0.00,656,Wunderground v.1.15,2013-03-10 20:17:00,
2013-03-10 16:22:00,78.3,56.4,30.06,SSW,209,4.0,6.0,47,0.00,,,0.00,674,Wunderground v.1.15,2013-03-10 20:22:00,
2013-03-10 16:32:00,77.9,56.0,30.06,SSW,206,7.0,8.0,47,0.00,,,0.00,623,Wunderground v.1.15,2013-03-10 20:32:00,
2013-03-10 16:42:00,76.7,56.1,30.06,SW,230,7.0,7.0,49,0.00,,,0.00,589,Wunderground v.1.15,2013-03-10 20:42:00,
2013-03-10 16:52:00,76.5,55.9,30.06,SW,233,7.0,8.0,49,0.00,,,0.00,535,Wunderground v.1.15,2013-03-10 20:52:00,
2013-03-10 16:57:00,76.0,56.0,30.06,WNW,285,6.0,8.0,50,0.00,,,0.00,517,Wunderground v.1.15,2013-03-10 20:57:00,
2013-03-10 17:07:00,76.3,56.3,30.06,SW,219,5.0,6.0,50,0.00,,,0.00,477,Wunderground v.1.15,2013-03-10 21:07:00,
2013-03-10 17:17:00,75.6,55.1,30.05,WSW,247,6.0,9.0,49,0.00,,,0.00,445,Wunderground v.1.15,2013-03-10 21:17:00,
2013-03-10 17:27:00,74.9,55.0,30.05,West,271,5.0,7.0,50,0.00,,,0.00,405,Wunderground v.1.15,2013-03-10 21:27:00,
2013-03-10 17:32:00,74.9,54.4,30.05,SSW,209,5.0,5.0,49,0.00,,,0.00,387,Wunderground v.1.15,2013-03-10 21:32:00,
2013-03-10 17:42:00,74.9,55.0,30.05,SSW,206,6.0,6.0,50,0.00,,,0.00,362,Wunderground v.1.15,2013-03-10 21:42:00,
2013-03-10 17:52:00,74.6,54.7,30.05,SW,233,5.0,5.0,50,0.00,,,0.00,313,Wunderground v.1.15,2013-03-10 21:52:00,
2013-03-10 17:57:00,74.4,54.5,30.05,SSW,209,6.0,8.0,50,0.00,,,0.00,296,Wunderground v.1.15,2013-03-10 21:57:00,
2013-03-10 18:07:00,74.4,54.5,30.05,SW,219,6.0,6.0,50,0.00,,,0.00,253,Wunderground v.1.15,2013-03-10 22:07:00,
2013-03-10 18:17:00,74.4,54.0,30.05,West,261,5.0,6.0,49,0.00,,,0.00,65,Wunderground v.1.15,2013-03-10 22:17:00,
2013-03-10 18:27:00,74.0,53.6,30.05,SSW,203,3.0,4.0,49,0.00,,,0.00,56,Wunderground v.1.15,2013-03-10 22:27:00,
2013-03-10 18:32:00,73.7,53.9,30.05,SSW,209,3.0,6.0,50,0.00,,,0.00,58,Wunderground v.1.15,2013-03-10 22:32:00,
2013-03-10 18:42:00,73.3,53.5,30.05,South,185,3.0,3.0,50,0.00,,,0.00,51,Wunderground v.1.15,2013-03-10 22:42:00,
2013-03-10 18:47:00,73.2,54.0,30.05,WSW,246,2.0,4.0,51,0.00,,,0.00,51,Wunderground v.1.15,2013-03-10 22:47:00,
2013-03-10 18:57:00,72.8,54.1,30.05,SW,222,2.0,5.0,52,0.00,,,0.00,39,Wunderground v.1.15,2013-03-10 22:57:00,
2013-03-10 19:07:00,72.5,53.3,30.06,WSW,241,3.0,5.0,51,0.00,,,0.00,49,Wunderground v.1.15,2013-03-10 23:07:00,
2013-03-10 19:17:00,72.3,54.7,30.07,West,275,3.0,5.0,54,0.00,,,0.00,28,Wunderground v.1.15,2013-03-10 23:17:00,
2013-03-10 19:22:00,72.1,56.0,30.07,NNW,340,5.0,5.0,57,0.00,,,0.00,14,Wunderground v.1.15,2013-03-10 23:22:00,
2013-03-10 19:32:00,70.9,55.4,30.07,WNW,298,4.0,4.0,58,0.00,,,0.00,5,Wunderground v.1.15,2013-03-10 23:32:00,
2013-03-10 19:42:00,69.9,55.4,30.07,NW,309,3.0,3.0,60,0.00,,,0.00,0,Wunderground v.1.15,2013-03-10 23:42:00,
2013-03-10 19:47:00,69.4,55.4,30.07,NW,316,3.0,4.0,61,0.00,,,0.00,0,Wunderground v.1.15,2013-03-10 23:47:00,
2013-03-10 19:52:00,69.1,55.5,30.07,NNW,346,3.0,3.0,62,0.00,,,0.00,0,Wunderground v.1.15,2013-03-10 23:52:00,
2013-03-10 19:57:00,68.8,55.7,30.07,NW,319,3.0,6.0,63,0.00,,,0.00,0,Wunderground v.1.15,2013-03-10 23:57:00,
2013-03-10 20:07:00,68.1,55.9,30.08,NNW,330,3.0,3.0,65,0.00,,,0.00,0,Wunderground v.1.15,2013-03-11 00:07:00,
2013-03-10 20:17:00,67.6,55.8,30.08,North,359,2.0,3.0,66,0.00,,,0.00,0,Wunderground v.1.15,2013-03-11 00:17:00,
2013-03-10 20:22:00,67.4,56.1,30.09,NNW,333,1.0,2.0,67,0.00,,,0.00,0,Wunderground v.1.15,2013-03-11 00:22:00,
2013-03-10 20:27:00,67.3,56.0,30.08,NNW,333,1.0,2.0,67,0.00,,,0.00,0,Wunderground v.1.15,2013-03-11 00:27:00,
2013-03-10 20:37:00,67.1,55.8,30.08,NNW,340,1.0,1.0,67,0.00,,,0.00,0,Wunderground v.1.15,2013-03-11 00:37:00,
2013-03-10 20:42:00,66.9,56.0,30.08,NNW,340,1.0,1.0,68,0.00,,,0.00,0,Wunderground v.1.15,2013-03-11 00:42:00,
2013-03-10 20:47:00,66.8,55.9,30.08,NNW,340,0.0,1.0,68,0.00,,,0.00,0,Wunderground v.1.15,2013-03-11 00:47:00,
2013-03-10 20:52:00,66.6,56.1,30.09,NW,315,1.0,3.0,69,0.00,,,0.00,0,Wunderground v.1.15,2013-03-11 00:52:00,
2013-03-10 20:57:00,66.6,56.1,30.09,NNW,329,2.0,3.0,69,0.00,,,0.00,0,Wunderground v.1.15,2013-03-11 00:57:00,
2013-03-10 21:02:00,66.6,56.1,30.09,NNW,329,1.0,1.0,69,0.00,,,0.00,0,Wunderground v.1.15,2013-03-11 01:02:00,
2013-03-10 21:12:00,66.4,56.3,30.09,North,352,1.0,1.0,70,0.00,,,0.00,0,Wunderground v.1.15,2013-03-11 01:12:00,
2013-03-10 21:22:00,66.4,56.3,30.10,North,352,0.0,0.0,70,0.00,,,0.00,0,Wunderground v.1.15,2013-03-11 01:22:00,
2013-03-10 21:27:00,66.3,56.2,30.10,North,352,0.0,0.0,70,0.00,,,0.00,0,Wunderground v.1.15,2013-03-11 01:27:00,
2013-03-10 21:37:00,66.3,56.6,30.10,North,0,0.0,0.0,71,0.00,,,0.00,0,Wunderground v.1.15,2013-03-11 01:37:00,
2013-03-10 21:42:00,66.3,56.6,30.10,North,0,0.0,0.0,71,0.00,,,0.00,0,Wunderground v.1.15,2013-03-11 01:42:00,
2013-03-10 21:52:00,66.3,56.6,30.10,NE,47,1.0,2.0,71,0.00,,,0.00,0,Wunderground v.1.15,2013-03-11 01:52:00,
2013-03-10 22:02:00,66.3,56.6,30.10,NE,47,1.0,1.0,71,0.00,,,0.00,0,Wunderground v.1.15,2013-03-11 02:02:00,
2013-03-10 22:07:00,66.3,56.6,30.10,NE,47,0.0,1.0,71,0.00,,,0.00,0,Wunderground v.1.15,2013-03-11 02:07:00,
2013-03-10 22:12:00,66.3,57.0,30.10,NE,56,1.0,5.0,72,0.00,,,0.00,0,Wunderground v.1.15,2013-03-11 02:12:00,
2013-03-10 22:22:00,66.1,56.8,30.11,NE,52,2.0,2.0,72,0.00,,,0.00,0,Wunderground v.1.15,2013-03-11 02:22:00,
2013-03-10 22:27:00,66.1,56.8,30.11,NNE,13,1.0,2.0,72,0.00,,,0.00,0,Wunderground v.1.15,2013-03-11 02:27:00,
2013-03-10 22:32:00,66.0,56.3,30.11,NE,48,1.0,1.0,71,0.00,,,0.00,0,Wunderground v.1.15,2013-03-11 02:32:00,
2013-03-10 22:37:00,65.8,56.1,30.11,NNE,16,1.0,1.0,71,0.00,,,0.00,0,Wunderground v.1.15,2013-03-11 02:37:00,
2013-03-10 22:47:00,65.8,56.1,30.11,NNE,14,1.0,2.0,71,0.00,,,0.00,0,Wunderground v.1.15,2013-03-11 02:47:00,
2013-03-10 22:52:00,65.8,56.5,30.10,NNE,18,1.0,1.0,72,0.00,,,0.00,0,Wunderground v.1.15,2013-03-11 02:52:00,
2013-03-10 22:57:00,65.8,56.5,30.10,NNE,18,1.0,1.0,72,0.00,,,0.00,0,Wunderground v.1.15,2013-03-11 02:57:00,
2013-03-10 23:07:00,65.6,56.7,30.10,NE,45,2.0,3.0,73,0.00,,,0.00,0,Wunderground v.1.15,2013-03-11 03:07:00,
2013-03-10 23:22:00,65.6,57.1,30.10,NE,52,1.0,1.0,74,0.00,,,0.00,0,Wunderground v.1.15,2013-03-11 03:22:00,
2013-03-10 23:27:00,65.6,57.1,30.10,NE,52,1.0,1.0,74,0.00,,,0.00,0,Wunderground v.1.15,2013-03-11 03:27:00,
2013-03-10 23:32:00,65.6,57.1,30.11,ENE,76,1.0,6.0,74,0.00,,,0.00,0,Wunderground v.1.15,2013-03-11 03:32:00,
2013-03-10 23:37:00,65.8,57.3,30.11,ESE,113,3.0,6.0,74,0.00,,,0.00,0,Wunderground v.1.15,2013-03-11 03:37:00,
2013-03-10 23:42:00,65.8,56.9,30.11,ESE,109,4.0,5.0,73,0.00,,,0.00,0,Wunderground v.1.15,2013-03-11 03:42:00,
2013-03-10 23:52:00,66.0,56.7,30.10,East,95,5.0,5.0,72,0.00,,,0.00,0,Wunderground v.1.15,2013-03-11 03:52:00,
2013-03-10 23:57:00,66.1,56.8,30.10,East,89,4.0,7.0,72,0.00,,,0.00,0,Wunderground v.1.15,2013-03-11 03:57:00,